Time,TemperatureF,DewpointF,PressureIn,WindDirection,WindDirectionDegrees,WindSpeedMPH,WindSpeedGustMPH,Humidity,HourlyPrecipIn,Conditions,Clouds,dailyrainin,SoftwareType,DateUTC
2013-03-20 00:15:00,64.6,63.0,29.98,NNW,345,0.0,2.0,95,0.00,,,0.00,weatherlink.com 1.10,2013-03-20 04:15:00,
2013-03-20 00:32:00,64.5,63.0,29.98,NNW,345,0.0,0.0,95,0.00,,,0.00,weatherlink.com 1.10,2013-03-20 04:32:00,
2013-03-20 00:46:00,64.2,63.0,29.98,NNW,345,0.0,0.0,95,0.00,,,0.00,weatherlink.com 1.10,2013-03-20 04:46:00,
2013-03-20 01:02:00,64.5,63.0,29.97,NNW,345,0.0,2.0,96,0.00,,,0.00,weatherlink.com 1.10,2013-03-20 05:02:00,
2013-03-20 01:18:00,64.2,63.0,29.96,NNW,345,0.0,0.0,95,0.00,,,0.00,weatherlink.com 1.10,2013-03-20 05:18:00,
2013-03-20 01:35:00,64.0,63.0,29.96,NNW,345,0.0,1.0,96,0.00,,,0.00,weatherlink.com 1.10,2013-03-20 05:35:00,
2013-03-20 01:50:00,63.7,63.0,29.95,NNW,345,0.0,1.0,96,0.00,,,0.00,weatherlink.com 1.10,2013-03-20 05:50:00,
2013-03-20 02:07:00,63.5,62.0,29.95,NNW,346,0.0,1.0,96,0.00,,,0.00,weatherlink.com 1.10,2013-03-20 06:07:00,
2013-03-20 02:23:00,63.4,62.0,29.95,NNW,346,0.0,0.0,96,0.00,,,0.00,weatherlink.com 1.10,2013-03-20 06:23:00,
2013-03-20 02:39:00,63.4,62.0,29.94,NNW,346,0.0,1.0,96,0.00,,,0.00,weatherlink.com 1.10,2013-03-20 06:39:00,
2013-03-20 02:54:00,63.7,63.0,29.94,NNW,346,0.0,1.0,96,0.00,,,0.00,weatherlink.com 1.10,2013-03-20 06:54:00,
2013-03-20 03:10:00,64.0,63.0,29.94,NNW,346,1.0,1.0,96,0.00,,,0.00,weatherlink.com 1.10,2013-03-20 07:10:00,
2013-03-20 03:27:00,64.4,63.0,29.94,NNW,347,0.0,2.0,96,0.00,,,0.00,weatherlink.com 1.10,2013-03-20 07:27:00,
2013-03-20 03:43:00,64.7,64.0,29.93,NNW,348,0.0,2.0,96,0.00,,,0.00,weatherlink.com 1.10,2013-03-20 07:43:00,
2013-03-20 04:01:00,64.8,63.0,29.93,NE,49,0.0,2.0,95,0.00,,,0.00,weatherlink.com 1.10,2013-03-20 08:01:00,
2013-03-20 04:18:00,64.8,63.0,29.93,NE,49,0.0,1.0,95,0.00,,,0.00,weatherlink.com 1.10,2013-03-20 08:18:00,
2013-03-20 04:32:00,64.8,63.0,29.92,NE,49,0.0,1.0,95,0.00,,,0.00,weatherlink.com 1.10,2013-03-20 08:32:00,
2013-03-20 04:46:00,64.8,63.0,29.92,WNW,293,0.0,2.0,95,0.00,,,0.00,weatherlink.com 1.10,2013-03-20 08:46:00,
2013-03-20 05:02:00,65.0,63.0,29.92,ENE,61,0.0,2.0,93,0.00,,,0.00,weatherlink.com 1.10,2013-03-20 09:02:00,
2013-03-20 05:18:00,65.2,63.0,29.91,ENE,72,1.0,4.0,93,0.00,,,0.00,weatherlink.com 1.10,2013-03-20 09:18:00,
2013-03-20 05:36:00,65.2,63.0,29.92,NE,52,2.0,3.0,92,0.00,,,0.00,weatherlink.com 1.10,2013-03-20 09:36:00,
2013-03-20 05:50:00,65.2,63.0,29.92,ENE,78,7.0,7.0,92,0.00,,,0.00,weatherlink.com 1.10,2013-03-20 09:50:00,
2013-03-20 06:06:00,65.3,63.0,29.92,ENE,71,3.0,5.0,92,0.00,,,0.00,weatherlink.com 1.10,2013-03-20 10:06:00,
2013-03-20 06:23:00,65.4,63.0,29.93,East,90,3.0,6.0,92,0.00,,,0.00,weatherlink.com 1.10,2013-03-20 10:23:00,
2013-03-20 06:39:00,65.6,63.0,29.93,ESE,105,3.0,5.0,92,0.00,,,0.00,weatherlink.com 1.10,2013-03-20 10:39:00,
2013-03-20 06:55:00,65.6,63.0,29.92,East,94,2.0,8.0,92,0.01,,,0.01,weatherlink.com 1.10,2013-03-20 10:55:00,
2013-03-20 07:12:00,65.7,63.0,29.93,ESE,105,1.0,7.0,92,0.01,,,0.01,weatherlink.com 1.10,2013-03-20 11:12:00,
2013-03-20 07:27:00,65.8,64.0,29.94,East,94,3.0,8.0,92,0.01,,,0.01,weatherlink.com 1.10,2013-03-20 11:27:00,
2013-03-20 07:45:00,65.9,64.0,29.93,SE,130,2.0,5.0,93,0.01,,,0.01,weatherlink.com 1.10,2013-03-20 11:45:00,
2013-03-20 07:59:00,65.9,64.0,29.92,SE,128,3.0,7.0,93,0.00,,,0.01,weatherlink.com 1.10,2013-03-20 11:59:00,
2013-03-20 08:14:00,65.9,64.0,29.92,ENE,63,7.0,8.0,93,0.00,,,0.01,weatherlink.com 1.10,2013-03-20 12:14:00,
2013-03-20 08:31:00,66.1,64.0,29.93,ENE,72,3.0,8.0,93,0.00,,,0.01,weatherlink.com 1.10,2013-03-20 12:31:00,
2013-03-20 08:46:00,66.3,64.0,29.93,ESE,114,3.0,7.0,93,0.00,,,0.01,weatherlink.com 1.10,2013-03-20 12:46:00,
2013-03-20 09:04:00,66.7,65.0,29.93,SE,146,3.0,8.0,93,0.00,,,0.01,weatherlink.com 1.10,2013-03-20 13:04:00,
2013-03-20 09:19:00,67.0,65.0,29.94,SE,125,2.0,9.0,93,0.00,,,0.01,weatherlink.com 1.10,2013-03-20 13:19:00,
2013-03-20 09:34:00,67.3,65.0,29.94,SSE,155,3.0,7.0,93,0.00,,,0.01,weatherlink.com 1.10,2013-03-20 13:34:00,
2013-03-20 09:51:00,67.7,65.0,29.95,East,92,5.0,7.0,92,0.00,,,0.01,weatherlink.com 1.10,2013-03-20 13:51:00,
2013-03-20 10:08:00,68.3,66.0,29.95,ESE,106,2.0,6.0,91,0.00,,,0.01,weatherlink.com 1.10,2013-03-20 14:08:00,
2013-03-20 10:22:00,68.5,66.0,29.95,SE,137,3.0,8.0,91,0.00,,,0.01,weatherlink.com 1.10,2013-03-20 14:22:00,
2013-03-20 10:38:00,69.0,66.0,29.96,South,169,1.0,6.0,89,0.00,,,0.01,weatherlink.com 1.10,2013-03-20 14:38:00,
2013-03-20 10:56:00,69.5,66.0,29.96,ESE,117,1.0,4.0,87,0.00,,,0.01,weatherlink.com 1.10,2013-03-20 14:56:00,
2013-03-20 11:10:00,69.6,65.0,29.96,SE,134,0.0,1.0,86,0.00,,,0.01,weatherlink.com 1.10,2013-03-20 15:10:00,
2013-03-20 11:26:00,69.8,65.0,29.96,SE,139,1.0,4.0,85,0.00,,,0.01,weatherlink.com 1.10,2013-03-20 15:26:00,
2013-03-20 11:43:00,70.1,65.0,29.97,SSE,149,1.0,3.0,84,0.00,,,0.01,weatherlink.com 1.10,2013-03-20 15:43:00,
2013-03-20 11:58:00,70.7,65.0,29.95,South,171,0.0,3.0,82,0.00,,,0.01,weatherlink.com 1.10,2013-03-20 15:58:00,
2013-03-20 12:16:00,70.8,64.0,29.96,SSW,196,0.0,4.0,79,0.00,,,0.01,weatherlink.com 1.10,2013-03-20 16:16:00,
2013-03-20 12:31:00,70.5,64.0,29.95,SW,218,0.0,6.0,80,0.00,,,0.01,weatherlink.com 1.10,2013-03-20 16:31:00,
2013-03-20 12:46:00,69.6,64.0,29.93,WSW,237,5.0,7.0,81,0.00,,,0.01,weatherlink.com 1.10,2013-03-20 16:46:00,
2013-03-20 13:04:00,69.7,63.0,29.91,SSW,195,0.0,5.0,80,0.00,,,0.01,weatherlink.com 1.10,2013-03-20 17:04:00,
2013-03-20 13:34:00,70.0,64.0,29.93,West,272,1.0,10.0,82,0.00,,,0.01,weatherlink.com 1.10,2013-03-20 17:34:00,
2013-03-20 13:52:00,69.5,64.0,29.92,West,267,0.0,9.0,83,0.00,,,0.01,weatherlink.com 1.10,2013-03-20 17:52:00,
2013-03-20 14:06:00,70.1,64.0,29.91,WSW,247,1.0,10.0,81,0.00,,,0.01,weatherlink.com 1.10,2013-03-20 18:06:00,
2013-03-20 14:23:00,71.0,65.0,29.90,SW,234,2.0,8.0,80,0.00,,,0.01,weatherlink.com 1.10,2013-03-20 18:23:00,
2013-03-20 14:39:00,69.9,64.0,29.89,WSW,246,1.0,8.0,82,0.00,,,0.01,weatherlink.com 1.10,2013-03-20 18:39:00,
2013-03-20 14:54:00,70.5,64.0,29.89,NNW,331,6.0,6.0,81,0.00,,,0.01,weatherlink.com 1.10,2013-03-20 18:54:00,
2013-03-20 15:13:00,69.3,65.0,29.86,WNW,292,2.0,8.0,85,0.00,,,0.01,weatherlink.com 1.10,2013-03-20 19:13:00,
2013-03-20 15:26:00,69.5,65.0,29.86,WNW,288,0.0,9.0,84,0.00,,,0.01,weatherlink.com 1.10,2013-03-20 19:26:00,
2013-03-20 15:44:00,69.7,65.0,29.85,SW,229,1.0,7.0,86,0.00,,,0.01,weatherlink.com 1.10,2013-03-20 19:44:00,
2013-03-20 15:58:00,70.4,65.0,29.84,North,351,1.0,5.0,84,0.00,,,0.01,weatherlink.com 1.10,2013-03-20 19:58:00,
2013-03-20 16:14:00,70.2,65.0,29.84,WSW,241,1.0,5.0,83,0.00,,,0.01,weatherlink.com 1.10,2013-03-20 20:14:00,
2013-03-20 16:31:00,69.5,64.0,29.83,SW,234,2.0,5.0,82,0.00,,,0.01,weatherlink.com 1.10,2013-03-20 20:31:00,
2013-03-20 16:48:00,69.5,65.0,29.82,WSW,250,3.0,4.0,84,0.00,,,0.01,weatherlink.com 1.10,2013-03-20 20:48:00,
2013-03-20 17:05:00,68.9,64.0,29.82,SW,234,2.0,5.0,84,0.00,,,0.01,weatherlink.com 1.10,2013-03-20 21:05:00,
2013-03-20 17:18:00,68.9,64.0,29.83,West,278,2.0,6.0,85,0.00,,,0.01,weatherlink.com 1.10,2013-03-20 21:18:00,
2013-03-20 17:35:00,68.5,64.0,29.84,WSW,257,4.0,7.0,86,0.00,,,0.01,weatherlink.com 1.10,2013-03-20 21:35:00,
2013-03-20 17:50:00,68.0,65.0,29.87,WSW,251,2.0,6.0,89,0.00,,,0.01,weatherlink.com 1.10,2013-03-20 21:50:00,
2013-03-20 18:05:00,67.2,65.0,29.88,NW,320,1.0,7.0,91,0.00,,,0.01,weatherlink.com 1.10,2013-03-20 22:05:00,
2013-03-20 18:21:00,66.8,65.0,29.90,WNW,290,5.0,7.0,93,0.00,,,0.01,weatherlink.com 1.10,2013-03-20 22:21:00,
2013-03-20 18:38:00,66.3,65.0,29.90,West,279,4.0,6.0,94,0.01,,,0.02,weatherlink.com 1.10,2013-03-20 22:38:00,
2013-03-20 18:53:00,66.1,65.0,29.91,West,280,2.0,11.0,95,0.04,,,0.05,weatherlink.com 1.10,2013-03-20 22:53:00,
2013-03-20 19:10:00,65.7,65.0,29.91,NW,311,3.0,12.0,96,0.10,,,0.11,weatherlink.com 1.10,2013-03-20 23:10:00,
2013-03-20 19:25:00,64.6,63.0,29.92,West,266,1.0,6.0,95,0.14,,,0.15,weatherlink.com 1.10,2013-03-20 23:25:00,
2013-03-20 19:43:00,63.6,63.0,29.93,NNE,12,5.0,16.0,96,0.15,,,0.18,weatherlink.com 1.10,2013-03-20 23:43:00,
2013-03-20 19:57:00,61.6,60.0,29.93,NW,305,4.0,14.0,95,0.13,,,0.19,weatherlink.com 1.10,2013-03-20 23:57:00,
2013-03-20 20:14:00,61.8,61.0,29.93,NE,43,2.0,14.0,96,0.07,,,0.19,weatherlink.com 1.10,2013-03-21 00:14:00,
2013-03-20 20:33:00,61.7,60.0,29.90,NE,44,3.0,15.0,95,0.02,,,0.19,weatherlink.com 1.10,2013-03-21 00:33:00,
2013-03-20 20:46:00,61.5,60.0,29.89,ENE,59,4.0,11.0,95,0.01,,,0.19,weatherlink.com 1.10,2013-03-21 00:46:00,
2013-03-20 21:01:00,61.3,60.0,29.89,NNE,22,0.0,5.0,95,0.00,,,0.19,weatherlink.com 1.10,2013-03-21 01:01:00,
2013-03-20 21:17:00,61.1,59.0,29.90,North,10,1.0,5.0,94,0.00,,,0.19,weatherlink.com 1.10,2013-03-21 01:17:00,
2013-03-20 21:33:00,61.0,59.0,29.90,NNE,33,1.0,5.0,94,0.00,,,0.19,weatherlink.com 1.10,2013-03-21 01:33:00,
2013-03-20 21:49:00,60.7,59.0,29.89,NE,54,0.0,4.0,93,0.00,,,0.19,weatherlink.com 1.10,2013-03-21 01:49:00,
2013-03-20 22:07:00,60.2,59.0,29.89,East,80,1.0,2.0,94,0.00,,,0.19,weatherlink.com 1.10,2013-03-21 02:07:00,
2013-03-20 22:21:00,59.7,58.0,29.89,East,82,0.0,2.0,94,0.00,,,0.19,weatherlink.com 1.10,2013-03-21 02:21:00,
2013-03-20 22:37:00,59.4,58.0,29.90,East,82,0.0,0.0,95,0.00,,,0.19,weatherlink.com 1.10,2013-03-21 02:37:00,
2013-03-20 22:54:00,59.2,58.0,29.90,East,82,0.0,2.0,96,0.00,,,0.19,weatherlink.com 1.10,2013-03-21 02:54:00,
2013-03-20 23:09:00,59.3,58.0,29.91,NNW,336,2.0,6.0,96,0.00,,,0.19,weatherlink.com 1.10,2013-03-21 03:09:00,
2013-03-20 23:25:00,59.8,59.0,29.92,NNW,331,0.0,3.0,96,0.00,,,0.19,weatherlink.com 1.10,2013-03-21 03:25:00,
2013-03-20 23:43:00,59.3,58.0,29.92,NNW,331,0.0,0.0,96,0.00,,,0.19,weatherlink.com 1.10,2013-03-21 03:43:00,
2013-03-20 23:57:00,58.9,58.0,29.91,NNW,331,0.0,0.0,96,0.00,,,0.19,weatherlink.com 1.10,2013-03-21 03:57:00,